[[{"header":{"parameterUnit":"m.s-1","parameterCategory":2,"la1":30.2991,"la2":30.254,"lo1":-89.0895,"lo2":-89.0444,"dy":0.0017,"dx":0.0017,"nx":28,"ny":28,"refTime":"2024-03-20T03:00:00:Z","depth":"0","parameterNumber":2,"parameterNumberName":"U-component_of_CURRENTS"},"data":[0,0,0,0,0,0,0,0,0,0,0,0,0,0,0,0,0,0,0,0,0,0,0,0,0,0,0,0,0,0,0,0,0,0,0,0,0,0,0,0,0,0,0,0,0,0,0,0,0,0,0,0,0,0,0,0,0,0,0.151,0.1511,0,0.1583,0.1584,0.1585,0.1604,0.1604,0.1604,0.1603,0.1664,0.1666,0.1668,0,0,0,0,0,0,0,0,0,0,0,0,0,0.1408,0.1409,0.151,0.1511,0.1512,0.1583,0.1584,0.1585,0.1604,0.1604,0.1603,0.1603,0.1664,0.1666,0.1668,0,0,0,0,0,0,0,0,0,0,0,0,0,0.1462,0.141,0.1509,0.1531,0.1534,0.1583,0.1584,0.1585,0.1604,0.1604,0.1603,0.1603,0.1663,0.1666,0.1669,0.1696,0,0,0.1678,0.1679,0,0,0,0,0,0,0,0,0.1459,0.1466,0.1527,0.153,0.1533,0.1585,0.1571,0.1622,0.1604,0.1576,0.1603,0.1603,0.1638,0.1643,0.1656,0.1699,0.1702,0.1678,0.168,0.1681,0.1682,0,0,0,0,0,0,0,0.1455,0.1463,0.1537,0.1528,0.1532,0.1545,0.1552,0.1581,0.1607,0.1578,0.158,0.1591,0.1639,0.1653,0.1658,0.1703,0.1678,0.168,0.1682,0.1683,0.1774,0.1775,0,0,0,0,0,0,0.1449,0.1459,0.1535,0.154,0.1496,0.1547,0.1555,0.1568,0.1608,0.1614,0.1591,0.1592,0.1649,0.1654,0.166,0.1706,0.1681,0.1684,0.1685,0.1773,0.1774,0.1775,0,0,0,0,0,0,0.1446,0.1455,0.1532,0.1502,0.1513,0.1549,0.1564,0.157,0.1587,0.1618,0.1623,0.1604,0.1648,0.1656,0.1688,0.1708,0.1685,0.1687,0.1772,0.1774,0.1774,0.1791,0,0,0,0,0,0,0.1443,0.1454,0.1463,0.1502,0.1514,0.157,0.1565,0.1571,0.1595,0.1596,0.163,0.1635,0.1649,0.1683,0.1691,0.1712,0.169,0.1772,0.1773,0.1774,0.179,0.1792,0.1795,0,0,0,0,0,0.1439,0.1457,0.1463,0.1472,0.1525,0.1571,0.1579,0.1602,0.1596,0.1613,0.1628,0.1634,0.1696,0.1686,0.1695,0.1717,0.1771,0.1773,0.1774,0.1788,0.1792,0.1795,0,0,0,0,0,0,0.1418,0.1462,0.1469,0.1499,0.1534,0.1575,0.1596,0.1605,0.1631,0.163,0.1646,0.1653,0.1683,0.17,0.1688,0.1746,0.1734,0.1737,0.1742,0.1746,0.1748,0.174,0.1692,0,0,0,0,0,0.1417,0.1443,0.1484,0.1509,0.1528,0.156,0.158,0.1597,0.1624,0.1635,0.1655,0.1676,0.1697,0.172,0.1738,0.1779,0.1818,0.1797,0.18,0.1802,0.18,0.186,0.1868,0.178,0.178,0.178,0,0,0.1414,0.1444,0.1457,0.1506,0.1535,0.1571,0.1571,0.1609,0.1631,0.1639,0.1671,0.1683,0.1706,0.1743,0.176,0.1762,0.1857,0.1804,0.1806,0.1803,0.1862,0.1871,0.1879,0.1781,0.1781,0.1781,0,0,0.1435,0.1451,0.1485,0.1513,0.1562,0.1583,0.1593,0.1635,0.1646,0.1679,0.1683,0.1708,0.1747,0.177,0.1785,0.1817,0.1859,0.1823,0.1845,0.1903,0.1911,0.1918,0.2022,0.2039,0.1837,0.1837,0.1837,0,0.1428,0.1477,0.1501,0.1541,0.1564,0.1587,0.1623,0.1643,0.1685,0.1697,0.169,0.1741,0.176,0.1806,0.1813,0.1824,0.1877,0.1832,0.1908,0.1915,0.1922,0.2027,0.2044,0.1838,0.1838,0.1838,0.1838,0,0.1481,0.1513,0.1536,0.1589,0.1615,0.1651,0.1679,0.17,0.1707,0.1726,0.1759,0.1781,0.1816,0.1825,0.1828,0.1888,0.1919,0.1895,0.19,0.1932,0.2041,0.2059,0.1839,0.1839,0.1839,0.1838,0,0,0.1481,0.1557,0.1565,0.1589,0.1641,0.1666,0.1698,0.1738,0.176,0.1783,0.1818,0.1843,0.1852,0.1868,0.1882,0.1927,0.2035,0.1935,0.1937,0.204,0.2207,0.2305,0.2335,0.2024,0.2026,0.2028,0.2279,0,0.1516,0.159,0.1617,0.1669,0.1704,0.1721,0.1749,0.1778,0.18,0.1838,0.1856,0.1891,0.1872,0.1894,0.1936,0.1999,0.2076,0.1971,0.2158,0.2164,0.2248,0.2356,0.2313,0.2538,0.2297,0.23,0.2302,0,0.1564,0.1603,0.1665,0.1706,0.1722,0.1747,0.1787,0.1816,0.1864,0.1881,0.1916,0.1933,0.2004,0.1973,0.2121,0.2057,0.2138,0.2186,0.2197,0.2289,0.2295,0.2458,0.2581,0.2467,0.233,0.2328,0.2326,0,0.1567,0.1632,0.1677,0.1694,0.1748,0.1763,0.1787,0.1829,0.1864,0.1916,0.1956,0.2016,0.208,0.2152,0.226,0.22,0.2438,0.2372,0.2548,0.2558,0.2559,0.2565,0.2589,0.2492,0.2492,0.2491,0.249,0,0.1599,0.1631,0.1677,0.1702,0.1735,0.1766,0.1807,0.1835,0.1899,0.1954,0.1982,0.2057,0.2123,0.2257,0.2319,0.2528,0.2505,0.2592,0.2635,0.257,0.2573,0.2502,0.2425,0.2501,0.2499,0.2497,0.2495,0,0.1607,0.1646,0.1688,0.1733,0.1744,0.1765,0.1822,0.186,0.1914,0.1994,0.2019,0.2138,0.2321,0.2427,0.2596,0.265,0.2745,0.2876,0.2826,0.2858,0.2885,0.2812,0.284,0.2759,0.311,0.3114,0.3117,0,0.1629,0.1652,0.1697,0.172,0.1741,0.1774,0.1807,0.1861,0.1907,0.2049,0.2099,0.23,0.2461,0.2783,0.2903,0.3105,0.2933,0.3172,0.3033,0.2927,0.2875,0.2709,0.2622,0.3062,0.3064,0.3066,0.3068,0,0.1659,0.167,0.1707,0.1749,0.1782,0.1801,0.1848,0.189,0.1968,0.2074,0.2254,0.2406,0.2715,0.2918,0.3178,0.3268,0.3014,0.3226,0.3103,0.2852,0.2682,0.2611,0.2882,0.3087,0.3086,0.3084,0.3083,0.3082,0.1696,0.1716,0.1773,0.1807,0.1824,0.1846,0.1869,0.1938,0.205,0.2196,0.2339,0.2561,0.2816,0.319,0.3276,0.3331,0.3217,0.3237,0.3172,0.3026,0.2883,0.324,0.3488,0.3488,0.3489,0.3489,0.3489,0,0.1803,0.1825,0.1838,0.1881,0.1886,0.1887,0.1921,0.1945,0.2077,0.2233,0.2416,0.2705,0.2944,0.3115,0.3296,0.3255,0.3072,0.3149,0.2839,0.2765,0.3095,0.3024,0.3195,0.3195,0.3195,0.3195,0.3195,0.3195,0.1894,0.1952,0.1941,0.1963,0.1958,0.1962,0.1979,0.2013,0.2094,0.2277,0.2437,0.2579,0.2819,0.3057,0.3109,0.3065,0.2782,0.2732,0.2637,0.2798,0.2796,0.2794,0.2706,0.2807,0.2807,0.2203,0.2198,0.2195]},{"header":{"parameterUnit":"m.s-1","parameterCategory":2,"la1":30.2991,"la2":30.254,"lo1":-89.0895,"lo2":-89.0444,"dy":0.0017,"dx":0.0017,"nx":28,"ny":28,"refTime":"2024-03-20T03:00:00:Z","depth":"0","parameterNumber":3,"parameterNumberName":"V-component_of_CURRENTS"},"data":[0,0,0,0,0,0,0,0,0,0,0,0,0,0,0,0,0,0,0,0,0,0,0,0,0,0,0,0,0,0,0,0,0,0,0,0,0,0,0,0,0,0,0,0,0,0,0,0,0,0,0,0,0,0,0,0,0,0,-0.0375,-0.0376,0,-0.0518,-0.052,-0.0521,-0.0576,-0.0576,-0.0576,-0.0575,-0.0744,-0.0749,-0.0754,0,0,0,0,0,0,0,0,0,0,0,0,0,-0.0226,-0.0228,-0.0374,-0.0376,-0.0378,-0.0518,-0.052,-0.0522,-0.0577,-0.0576,-0.0575,-0.0575,-0.0742,-0.0748,-0.0754,0,0,0,0,0,0,0,0,0,0,0,0,0,-0.0322,-0.0229,-0.0374,-0.0422,-0.0428,-0.0517,-0.052,-0.0522,-0.0577,-0.0576,-0.0575,-0.0575,-0.0741,-0.0748,-0.0755,-0.0814,0,0,-0.0778,-0.0781,0,0,0,0,0,0,0,0,-0.0317,-0.0328,-0.0413,-0.0419,-0.0425,-0.0528,-0.053,-0.0621,-0.0577,-0.052,-0.0575,-0.0574,-0.0675,-0.0687,-0.0716,-0.0822,-0.0829,-0.0778,-0.0783,-0.0786,-0.0788,0,0,0,0,0,0,0,-0.031,-0.0322,-0.0432,-0.0415,-0.0422,-0.0463,-0.0475,-0.0547,-0.06,-0.0525,-0.053,-0.0545,-0.0678,-0.0709,-0.072,-0.0832,-0.0778,-0.0785,-0.0789,-0.0792,-0.1043,-0.1045,0,0,0,0,0,0,-0.0288,-0.0316,-0.0427,-0.0436,-0.0368,-0.0466,-0.048,-0.0496,-0.0599,-0.0614,-0.0546,-0.0547,-0.0696,-0.0712,-0.0727,-0.0822,-0.0786,-0.0793,-0.0797,-0.1041,-0.1043,-0.1046,0,0,0,0,0,0,-0.0285,-0.0297,-0.0421,-0.0379,-0.0397,-0.0468,-0.0487,-0.0499,-0.0534,-0.0614,-0.0629,-0.0567,-0.0697,-0.0716,-0.0809,-0.0828,-0.0796,-0.0803,-0.1038,-0.1041,-0.1045,-0.1,0,0,0,0,0,0,-0.028,-0.0295,-0.0302,-0.0377,-0.0399,-0.0484,-0.0488,-0.0503,-0.0544,-0.0548,-0.0638,-0.0653,-0.0698,-0.0797,-0.0816,-0.0837,-0.0808,-0.1035,-0.104,-0.1043,-0.0999,-0.1001,-0.1004,0,0,0,0,0,-0.0274,-0.0293,-0.0302,-0.0316,-0.0406,-0.0485,-0.0501,-0.0549,-0.0545,-0.0574,-0.0636,-0.065,-0.0837,-0.0806,-0.0827,-0.085,-0.1033,-0.1038,-0.1043,-0.0998,-0.1001,-0.1004,0,0,0,0,0,0,-0.0232,-0.0302,-0.0314,-0.0351,-0.0414,-0.0494,-0.0526,-0.055,-0.0621,-0.0623,-0.0684,-0.0705,-0.0791,-0.0838,-0.0801,-0.0939,-0.0936,-0.0946,-0.0894,-0.0898,-0.0901,-0.0825,-0.0815,0,0,0,0,0,-0.0225,-0.0258,-0.0328,-0.036,-0.0389,-0.0454,-0.049,-0.0524,-0.0593,-0.0622,-0.0686,-0.0759,-0.083,-0.0875,-0.0948,-0.1028,-0.1002,-0.106,-0.1062,-0.1064,-0.102,-0.1014,-0.1009,-0.1062,-0.1062,-0.1062,0,0,-0.0216,-0.026,-0.0277,-0.0354,-0.0403,-0.0458,-0.0475,-0.0536,-0.0576,-0.0632,-0.0711,-0.0772,-0.0855,-0.0941,-0.0983,-0.0981,-0.1038,-0.107,-0.107,-0.1025,-0.1018,-0.1012,-0.1006,-0.1066,-0.1065,-0.1065,0,0,-0.0229,-0.0256,-0.0293,-0.0346,-0.0422,-0.0465,-0.0479,-0.0565,-0.0596,-0.0681,-0.0725,-0.0787,-0.0916,-0.0964,-0.1006,-0.107,-0.105,-0.1111,-0.1063,-0.1059,-0.1053,-0.1046,-0.0997,-0.0986,-0.1114,-0.1114,-0.1114,0,-0.0211,-0.0268,-0.0317,-0.0371,-0.0404,-0.0463,-0.0504,-0.0559,-0.0662,-0.0672,-0.0703,-0.0835,-0.0917,-0.0976,-0.1006,-0.1068,-0.1043,-0.1038,-0.1054,-0.1048,-0.1042,-0.0993,-0.0982,-0.1112,-0.1112,-0.1113,-0.1113,0,-0.0262,-0.0303,-0.0332,-0.0409,-0.0451,-0.0502,-0.0569,-0.061,-0.0645,-0.0683,-0.0742,-0.0838,-0.0896,-0.0954,-0.1004,-0.1017,-0.1003,-0.105,-0.1025,-0.1032,-0.0982,-0.0971,-0.111,-0.1111,-0.1111,-0.1111,0,0,-0.0222,-0.034,-0.0348,-0.0371,-0.0468,-0.0498,-0.0557,-0.0606,-0.0598,-0.0694,-0.0678,-0.0818,-0.0823,-0.0869,-0.0934,-0.0942,-0.0904,-0.0972,-0.0973,-0.0882,-0.0846,-0.08,-0.0783,-0.0947,-0.0946,-0.0945,-0.0821,0,-0.0241,-0.0322,-0.0378,-0.0432,-0.0469,-0.0518,-0.055,-0.0593,-0.0625,-0.0631,-0.0691,-0.0719,-0.0808,-0.0814,-0.0841,-0.088,-0.0874,-0.0929,-0.0886,-0.0883,-0.0809,-0.077,-0.0738,-0.0622,-0.081,-0.0808,-0.0807,0,-0.027,-0.0313,-0.0368,-0.0409,-0.0423,-0.0452,-0.0454,-0.0493,-0.0516,-0.053,-0.0549,-0.0586,-0.0608,-0.0684,-0.0708,-0.0733,-0.0774,-0.0806,-0.0803,-0.0755,-0.0816,-0.0653,-0.0595,-0.0793,-0.079,-0.0791,-0.0793,0,-0.0207,-0.0295,-0.0321,-0.0348,-0.0414,-0.0409,-0.0424,-0.0447,-0.043,-0.0436,-0.0394,-0.0448,-0.0428,-0.0496,-0.0568,-0.063,-0.0559,-0.0666,-0.0654,-0.065,-0.0607,-0.0602,-0.0694,-0.0664,-0.0665,-0.0665,-0.0665,0,-0.0203,-0.0218,-0.0285,-0.0299,-0.0276,-0.0336,-0.0294,-0.0313,-0.0294,-0.0226,-0.0314,-0.024,-0.0377,-0.0368,-0.0476,-0.0486,-0.0487,-0.0594,-0.0606,-0.0594,-0.059,-0.0749,-0.0864,-0.066,-0.0661,-0.0662,-0.0663,0,-0.0136,-0.0202,-0.0212,-0.0252,-0.0253,-0.0222,-0.0199,-0.0152,-0.0155,-0.0053,-0.0034,-0.0045,-0.002,-0.0135,-0.0205,-0.0328,-0.045,-0.0396,-0.0341,-0.035,-0.0558,-0.067,-0.0664,-0.0735,-0.0359,-0.0357,-0.0355,0,-0.0111,-0.0118,-0.0141,-0.0116,-0.0127,-0.0098,-0.0058,-0.0072,-0.0011,0.0089,0.0168,0.0218,0.0301,0.0233,0.0027,-0.0095,-0.0316,-0.0192,-0.0333,-0.0515,-0.0651,-0.0723,-0.0792,-0.0257,-0.0254,-0.0252,-0.0251,0,-0.0019,-0.0029,-0.0026,0.0014,0.0057,0.0098,0.0152,0.0224,0.0254,0.0372,0.0553,0.0642,0.057,0.0486,0.0275,0.0131,-0.0308,-0.0156,-0.0373,-0.0573,-0.0626,-0.0719,-0.0374,-0.0234,-0.0235,-0.0237,-0.0237,-0.0238,0.0093,0.0126,0.0138,0.0184,0.0229,0.0317,0.0399,0.0491,0.065,0.0865,0.0885,0.1083,0.0833,0.0569,0.0338,-0.0132,-0.0161,-0.0311,-0.0421,-0.0469,-0.0572,-0.0155,-0.0029,-0.0029,-0.003,-0.003,-0.003,0,0.0255,0.0275,0.0316,0.0383,0.0466,0.0439,0.0565,0.068,0.0927,0.1134,0.1329,0.1341,0.1036,0.0613,-0.0,-0.0349,-0.0518,-0.0564,-0.0712,-0.0768,-0.0413,-0.0451,-0.0377,-0.0377,-0.0377,-0.0377,-0.0376,-0.0376,0.0361,0.0436,0.0434,0.0595,0.0641,0.0774,0.0862,0.1047,0.1208,0.153,0.1678,0.1745,0.1379,0.0273,-0.0541,-0.0737,-0.1024,-0.1009,-0.1179,-0.1026,-0.1014,-0.1003,-0.1069,-0.1126,-0.1127,-0.1492,-0.1496,-0.1499]}],[{"header":{"parameterUnit":"m.s-1","parameterCategory":2,"la1":30.2991,"la2":30.254,"lo1":-89.0895,"lo2":-89.0444,"dy":0.0017,"dx":0.0017,"nx":28,"ny":28,"refTime":"2024-03-20T03:00:00:Z","depth":"2","parameterNumber":2,"parameterNumberName":"U-component_of_CURRENTS"},"data":[0,0,0,0,0,0,0,0,0,0,0,0,0,0,0,0,0,0,0,0,0,0,0,0,0,0,0,0,0,0,0,0,0,0,0,0,0,0,0,0,0,0,0,0,0,0,0,0,0,0,0,0,0,0,0,0,0,0,0.1369,0.1369,0,0.132,0.1319,0.1318,0.1325,0.1326,0.1328,0.1329,0.1297,0.1294,0.1292,0,0,0,0,0,0,0,0,0,0,0,0,0,0.1305,0.1306,0.1369,0.1369,0.1369,0.1321,0.1319,0.1318,0.1324,0.1326,0.1328,0.133,0.1297,0.1295,0.1292,0,0,0,0,0,0,0,0,0,0,0,0,0,0.1295,0.1307,0.1369,0.1372,0.1373,0.1321,0.1319,0.1317,0.1324,0.1326,0.1328,0.1331,0.1298,0.1295,0.1292,0.1225,0,0,0.1281,0.128,0,0,0,0,0,0,0,0,0.1296,0.1297,0.1372,0.1372,0.1372,0.1338,0.1285,0.129,0.1323,0.1334,0.1329,0.1332,0.1315,0.1311,0.1285,0.1223,0.1222,0.1281,0.1279,0.1277,0.1276,0,0,0,0,0,0,0,0.1297,0.1298,0.1342,0.1372,0.1372,0.1321,0.1323,0.1284,0.1307,0.1333,0.1336,0.1342,0.1315,0.1288,0.1285,0.1222,0.1281,0.1278,0.1276,0.1274,0.1194,0.1194,0,0,0,0,0,0,0.1325,0.1299,0.1343,0.1341,0.1348,0.1322,0.1323,0.134,0.1307,0.1306,0.134,0.1343,0.1293,0.1289,0.1284,0.1293,0.1277,0.1274,0.1272,0.1194,0.1194,0.1194,0,0,0,0,0,0,0.1323,0.1329,0.1345,0.1324,0.1324,0.1323,0.134,0.1338,0.1343,0.1313,0.1312,0.1352,0.1295,0.1288,0.1273,0.1289,0.1273,0.1269,0.1194,0.1194,0.1194,0.1254,0,0,0,0,0,0,0.1322,0.1329,0.1342,0.1327,0.1327,0.1332,0.1339,0.1336,0.1345,0.1348,0.1322,0.1319,0.1296,0.1278,0.1269,0.1284,0.1267,0.1194,0.1194,0.1194,0.1252,0.1256,0.1259,0,0,0,0,0,0.132,0.1337,0.1343,0.1348,0.1348,0.1333,0.1326,0.1326,0.1344,0.1339,0.1329,0.1322,0.1271,0.1275,0.1265,0.1279,0.1194,0.1194,0.1194,0.125,0.1255,0.1259,0,0,0,0,0,0,0.1312,0.134,0.1346,0.137,0.136,0.1337,0.1337,0.1338,0.1321,0.1335,0.1311,0.1306,0.1298,0.1273,0.1278,0.1254,0.1234,0.1232,0.1281,0.1285,0.1288,0.1295,0.1264,0,0,0,0,0,0.1318,0.1344,0.1346,0.1363,0.1366,0.1353,0.1348,0.135,0.1339,0.1335,0.1319,0.1302,0.1279,0.1275,0.1244,0.1224,0.1251,0.1228,0.1232,0.1235,0.1233,0.1265,0.1272,0.1193,0.1193,0.1193,0,0,0.1318,0.1339,0.1351,0.1364,0.1358,0.1354,0.1355,0.1359,0.1358,0.1332,0.1328,0.1309,0.1275,0.1259,0.1254,0.1248,0.1285,0.1235,0.1238,0.1234,0.1265,0.1274,0.1281,0.1193,0.1193,0.1193,0,0,0.1324,0.1352,0.1369,0.1367,0.1375,0.1366,0.1379,0.1369,0.137,0.1352,0.1344,0.1338,0.1295,0.1281,0.1266,0.1266,0.1299,0.1265,0.1292,0.1324,0.1332,0.1338,0.1449,0.1465,0.1271,0.1272,0.1272,0,0.1319,0.1347,0.1364,0.1373,0.1375,0.1382,0.1382,0.1375,0.1361,0.1359,0.1363,0.1322,0.1301,0.129,0.1296,0.1276,0.1328,0.1284,0.1332,0.1338,0.1344,0.1455,0.1472,0.1274,0.1274,0.1274,0.1274,0,0.1333,0.1349,0.1359,0.1379,0.1378,0.1382,0.1385,0.1386,0.1393,0.1384,0.1379,0.1351,0.1334,0.1329,0.1311,0.1339,0.138,0.1334,0.133,0.1357,0.1472,0.1489,0.1279,0.1278,0.1277,0.1276,0,0,0.1338,0.1361,0.1366,0.1363,0.1385,0.1377,0.1392,0.1389,0.1401,0.1393,0.1405,0.1372,0.1378,0.1362,0.1353,0.1377,0.1486,0.1383,0.1383,0.151,0.1633,0.1687,0.1711,0.1457,0.1459,0.146,0.1723,0,0.1338,0.1348,0.1367,0.1364,0.1363,0.1377,0.1382,0.1386,0.1396,0.1409,0.1406,0.141,0.1387,0.1398,0.1419,0.1461,0.1521,0.1423,0.1571,0.1577,0.1634,0.1726,0.1481,0.1695,0.1739,0.1742,0.1744,0,0.1345,0.1352,0.135,0.1349,0.1352,0.1353,0.1369,0.1374,0.1403,0.1416,0.1436,0.1447,0.1499,0.1462,0.1581,0.1529,0.1588,0.1622,0.1632,0.1663,0.1659,0.1658,0.1723,0.1771,0.1769,0.1767,0.1765,0,0.1326,0.1336,0.1332,0.1333,0.1339,0.1343,0.135,0.1375,0.1398,0.144,0.1486,0.1519,0.1587,0.1628,0.1731,0.1666,0.1884,0.1796,0.1912,0.192,0.1727,0.1715,0.1877,0.1876,0.1876,0.1875,0.1874,0,0.1315,0.1309,0.1321,0.1313,0.1312,0.1327,0.1344,0.1355,0.1412,0.1475,0.1498,0.1588,0.1631,0.1761,0.1795,0.1957,0.1953,0.1955,0.1986,0.175,0.1737,0.1781,0.1767,0.1885,0.1883,0.1881,0.1879,0,0.1289,0.1297,0.1283,0.1291,0.1299,0.1297,0.1348,0.1377,0.1433,0.1532,0.1566,0.1693,0.1884,0.1963,0.2095,0.2089,0.219,0.2239,0.2015,0.2012,0.2193,0.2178,0.2387,0.2391,0.2395,0.2398,0.24,0,0.1274,0.1265,0.1265,0.128,0.1286,0.1305,0.1337,0.1377,0.1441,0.1617,0.1688,0.1898,0.2051,0.2297,0.2287,0.2399,0.2397,0.2265,0.2056,0.2234,0.2243,0.2222,0.2203,0.1858,0.1856,0.1854,0.1853,0,0.124,0.124,0.1237,0.1278,0.1302,0.1336,0.1399,0.1444,0.1547,0.1655,0.1862,0.1995,0.2208,0.2217,0.2357,0.2358,0.2211,0.2236,0.2475,0.1768,0.1756,0.1757,0.1752,0.1836,0.1838,0.1839,0.184,0.1841,0.1223,0.1215,0.1235,0.1268,0.1317,0.1387,0.1391,0.1506,0.161,0.172,0.1889,0.1998,0.2049,0.2131,0.2135,0.2113,0.2237,0.2103,0.2099,0.2099,0.1991,0.1985,0.2095,0.2098,0.21,0.2103,0.2105,0,0.119,0.1208,0.1241,0.1269,0.1309,0.1365,0.1447,0.1441,0.155,0.1672,0.1781,0.1689,0.1748,0.1838,0.1752,0.1788,0.165,0.1752,0.1516,0.1536,0.1553,0.1405,0.136,0.1358,0.1356,0.1354,0,0,0.1172,0.1178,0.119,0.1243,0.1295,0.131,0.1338,0.1367,0.142,0.1448,0.1471,0.1567,0.1739,0.1486,0.1481,0.1416,0.1448,0.1362,0.1955,0.1692,0.1706,0.1758,0.1559,0,0,0,0,0]},{"header":{"parameterUnit":"m.s-1","parameterCategory":2,"la1":30.2991,"la2":30.254,"lo1":-89.0895,"lo2":-89.0444,"dy":0.0017,"dx":0.0017,"nx":28,"ny":28,"refTime":"2024-03-20T03:00:00:Z","depth":"2","parameterNumber":3,"parameterNumberName":"V-component_of_CURRENTS"},"data":[0,0,0,0,0,0,0,0,0,0,0,0,0,0,0,0,0,0,0,0,0,0,0,0,0,0,0,0,0,0,0,0,0,0,0,0,0,0,0,0,0,0,0,0,0,0,0,0,0,0,0,0,0,0,0,0,0,0,-0.0394,-0.0395,0,-0.0451,-0.0451,-0.0451,-0.0487,-0.0488,-0.0489,-0.0489,-0.0527,-0.0528,-0.0528,0,0,0,0,0,0,0,0,0,0,0,0,0,-0.0262,-0.0264,-0.0393,-0.0395,-0.0396,-0.0451,-0.0451,-0.0451,-0.0487,-0.0488,-0.0489,-0.049,-0.0527,-0.0528,-0.0528,0,0,0,0,0,0,0,0,0,0,0,0,0,-0.0314,-0.0265,-0.0393,-0.0425,-0.0429,-0.0451,-0.0451,-0.0451,-0.0487,-0.0488,-0.0489,-0.049,-0.0527,-0.0528,-0.0528,-0.0508,0,0,-0.0529,-0.053,0,0,0,0,0,0,0,0,-0.0311,-0.0318,-0.0419,-0.0423,-0.0427,-0.0468,-0.0419,-0.0472,-0.0487,-0.0458,-0.049,-0.0491,-0.0509,-0.0511,-0.0511,-0.051,-0.0512,-0.053,-0.053,-0.053,-0.053,0,0,0,0,0,0,0,-0.0307,-0.0315,-0.041,-0.042,-0.0425,-0.0419,-0.0427,-0.0428,-0.0472,-0.0461,-0.0465,-0.0481,-0.051,-0.051,-0.0512,-0.0512,-0.053,-0.053,-0.053,-0.053,-0.056,-0.056,0,0,0,0,0,0,-0.0314,-0.0312,-0.0408,-0.0412,-0.0377,-0.0421,-0.043,-0.0449,-0.0472,-0.0479,-0.048,-0.0482,-0.0509,-0.0512,-0.0514,-0.0549,-0.053,-0.053,-0.0531,-0.0559,-0.056,-0.056,0,0,0,0,0,0,-0.0311,-0.0322,-0.0406,-0.0368,-0.0379,-0.0423,-0.0443,-0.045,-0.0469,-0.0488,-0.0493,-0.0496,-0.051,-0.0513,-0.0534,-0.0548,-0.0531,-0.0531,-0.0559,-0.0559,-0.056,-0.0582,0,0,0,0,0,0,-0.0307,-0.0321,-0.033,-0.0369,-0.0382,-0.0421,-0.0443,-0.045,-0.0479,-0.0483,-0.0503,-0.0507,-0.0511,-0.0533,-0.0534,-0.0549,-0.0531,-0.0558,-0.0559,-0.056,-0.0581,-0.0584,-0.0586,0,0,0,0,0,-0.0302,-0.0321,-0.033,-0.0342,-0.0396,-0.0422,-0.0426,-0.0457,-0.0479,-0.0479,-0.0505,-0.0507,-0.054,-0.0533,-0.0535,-0.055,-0.0558,-0.0559,-0.056,-0.058,-0.0583,-0.0586,0,0,0,0,0,0,-0.0266,-0.0328,-0.0339,-0.0374,-0.0394,-0.043,-0.0444,-0.0463,-0.0483,-0.0497,-0.0511,-0.0515,-0.0542,-0.0539,-0.0532,-0.0561,-0.055,-0.0551,-0.0565,-0.0568,-0.057,-0.0552,-0.0532,0,0,0,0,0,-0.0263,-0.0296,-0.0337,-0.0362,-0.0376,-0.0409,-0.0424,-0.0447,-0.0475,-0.0486,-0.0507,-0.0527,-0.0542,-0.0551,-0.0562,-0.0572,-0.0564,-0.0583,-0.0586,-0.0588,-0.0574,-0.0585,-0.0587,-0.0564,-0.0564,-0.0564,0,0,-0.0255,-0.0295,-0.0312,-0.0356,-0.0378,-0.0388,-0.042,-0.0452,-0.0461,-0.0485,-0.0511,-0.0539,-0.0548,-0.0567,-0.0578,-0.057,-0.0592,-0.0589,-0.0591,-0.0576,-0.0586,-0.0588,-0.059,-0.0565,-0.0565,-0.0565,0,0,-0.025,-0.0292,-0.0309,-0.0326,-0.0368,-0.0387,-0.0399,-0.0443,-0.0465,-0.0493,-0.0517,-0.055,-0.0574,-0.0584,-0.059,-0.0608,-0.0608,-0.0622,-0.0618,-0.0629,-0.0631,-0.0632,-0.0628,-0.0629,-0.062,-0.062,-0.062,0,-0.0231,-0.0263,-0.0312,-0.0323,-0.0338,-0.0386,-0.0389,-0.0412,-0.0458,-0.0473,-0.0505,-0.0555,-0.0576,-0.0586,-0.0606,-0.0613,-0.0617,-0.0607,-0.0632,-0.0633,-0.0634,-0.063,-0.0631,-0.0622,-0.0621,-0.0621,-0.0621,0,-0.0233,-0.025,-0.0263,-0.0293,-0.031,-0.0327,-0.0365,-0.0391,-0.0438,-0.0463,-0.0506,-0.0545,-0.0571,-0.0594,-0.0612,-0.063,-0.063,-0.0638,-0.0623,-0.0638,-0.0632,-0.0633,-0.0623,-0.0623,-0.0623,-0.0622,0,0,-0.0209,-0.0252,-0.0256,-0.0254,-0.0298,-0.031,-0.0334,-0.0361,-0.0371,-0.0437,-0.0448,-0.0513,-0.0551,-0.056,-0.0592,-0.0613,-0.0642,-0.0637,-0.0637,-0.063,-0.0663,-0.0652,-0.0651,-0.0664,-0.0664,-0.0664,-0.0657,0,-0.0187,-0.0194,-0.0228,-0.0222,-0.0225,-0.027,-0.0279,-0.0313,-0.0356,-0.0378,-0.0438,-0.0462,-0.053,-0.055,-0.0589,-0.0618,-0.0644,-0.0643,-0.065,-0.065,-0.0637,-0.0651,-0.0616,-0.0606,-0.0657,-0.0657,-0.0657,0,-0.0171,-0.0181,-0.0174,-0.0184,-0.019,-0.0198,-0.0226,-0.0237,-0.0279,-0.0312,-0.0361,-0.0403,-0.0445,-0.0502,-0.0569,-0.057,-0.0623,-0.0653,-0.0654,-0.0631,-0.064,-0.0599,-0.0604,-0.0657,-0.0657,-0.0657,-0.0657,0,-0.0128,-0.014,-0.0133,-0.0138,-0.016,-0.0172,-0.0188,-0.0226,-0.0218,-0.0263,-0.0255,-0.0334,-0.0342,-0.0434,-0.0516,-0.0549,-0.0573,-0.0618,-0.0655,-0.0654,-0.0615,-0.061,-0.0668,-0.0668,-0.0668,-0.0668,-0.0668,0,-0.0088,-0.0083,-0.0116,-0.0111,-0.0101,-0.0136,-0.0125,-0.0153,-0.0162,-0.012,-0.0215,-0.0182,-0.0328,-0.0362,-0.0474,-0.0548,-0.054,-0.0647,-0.0652,-0.0622,-0.0618,-0.0655,-0.0653,-0.0667,-0.0668,-0.0668,-0.0668,0,-0.0038,-0.0056,-0.0049,-0.0075,-0.0079,-0.0076,-0.0071,-0.0051,-0.0071,-0.0014,-0.0015,-0.0055,-0.0097,-0.0228,-0.0338,-0.0457,-0.0548,-0.0578,-0.0526,-0.0526,-0.0639,-0.0639,-0.0635,-0.0634,-0.0634,-0.0633,-0.0633,0,-0.0012,-0.0006,-0.0019,-0.0003,-0.0017,-0.0012,0.0007,-0.0011,0.0032,0.0087,0.014,0.0115,0.0132,-0.0028,-0.0243,-0.0421,-0.0475,-0.052,-0.059,-0.063,-0.0636,-0.0636,-0.0637,-0.0547,-0.0546,-0.0546,-0.0545,0,0.0033,0.0018,0.0025,0.0055,0.0072,0.0116,0.0145,0.02,0.0223,0.0296,0.0402,0.0424,0.0267,0.0106,-0.0155,-0.0288,-0.05,-0.0511,-0.0548,-0.0564,-0.0548,-0.0554,-0.0557,-0.0538,-0.0539,-0.054,-0.054,-0.054,0.0054,0.0072,0.0079,0.0112,0.0157,0.0243,0.0308,0.0382,0.0494,0.0609,0.06,0.0635,0.0402,0.0087,-0.013,-0.0397,-0.0426,-0.0539,-0.0541,-0.0544,-0.0538,-0.0523,-0.0506,-0.0506,-0.0507,-0.0507,-0.0508,0,0.0072,0.0095,0.0139,0.0189,0.0272,0.0282,0.0409,0.0515,0.0689,0.0746,0.0822,0.064,0.0452,0.0189,-0.0193,-0.0427,-0.0459,-0.0494,-0.0491,-0.0496,-0.05,-0.0493,-0.0449,-0.0449,-0.045,-0.045,0,0,0.0079,0.012,0.0149,0.0276,0.0338,0.0486,0.0583,0.0757,0.0847,0.0932,0.0914,0.0835,0.0529,0.0262,-0.0041,-0.0238,-0.0314,-0.0277,-0.0302,-0.0267,-0.0268,-0.0507,-0.0498,0,0,0,0,0]}],[{"header":{"parameterUnit":"m.s-1","parameterCategory":2,"la1":30.2991,"la2":30.254,"lo1":-89.0895,"lo2":-89.0444,"dy":0.0017,"dx":0.0017,"nx":28,"ny":28,"refTime":"2024-03-20T03:00:00:Z","depth":"4","parameterNumber":2,"parameterNumberName":"U-component_of_CURRENTS"},"data":[0,0,0,0,0,0,0,0,0,0,0,0,0,0,0,0,0,0,0,0,0,0,0,0,0,0,0,0,0,0,0,0,0,0,0,0,0,0,0,0,0,0,0,0,0,0,0,0,0,0,0,0,0,0,0,0,0,0,0.0428,0.0428,0,0.0445,0.0445,0.0445,0.0463,0.0463,0.0463,0.0464,0.0482,0.0482,0.0483,0,0,0,0,0,0,0,0,0,0,0,0,0,0.0403,0.0404,0.0428,0.0428,0.0429,0.0445,0.0445,0.0445,0.0463,0.0463,0.0463,0.0464,0.0482,0.0482,0.0483,0,0,0,0,0,0,0,0,0,0,0,0,0,0.0417,0.0404,0.0428,0.0439,0.044,0.0445,0.0445,0.0445,0.0463,0.0463,0.0463,0.0464,0.0482,0.0482,0.0483,0.0478,0,0,0.0484,0.0484,0,0,0,0,0,0,0,0,0.0416,0.0418,0.0437,0.0438,0.044,0.0452,0.0443,0.0456,0.0463,0.0455,0.0464,0.0464,0.0472,0.0473,0.0476,0.0479,0.048,0.0484,0.0484,0.0484,0.0484,0,0,0,0,0,0,0,0.0415,0.0417,0.0435,0.0438,0.0439,0.044,0.0443,0.0446,0.0461,0.0455,0.0457,0.0458,0.0472,0.0475,0.0476,0.048,0.0484,0.0484,0.0485,0.0485,0.0551,0.0552,0,0,0,0,0,0,0.0413,0.0416,0.0435,0.0436,0.0428,0.044,0.0443,0.0448,0.0461,0.0463,0.0458,0.0459,0.0474,0.0476,0.0477,0.054,0.0484,0.0485,0.0485,0.0549,0.0551,0.0553,0,0,0,0,0,0,0.0412,0.0414,0.0434,0.0426,0.0428,0.0441,0.0446,0.0448,0.0465,0.0463,0.0465,0.0474,0.0475,0.0476,0.0502,0.0538,0.0485,0.0485,0.0548,0.055,0.0552,0.0622,0,0,0,0,0,0,0.0411,0.0414,0.0421,0.0426,0.0429,0.0447,0.0445,0.0448,0.0464,0.0466,0.0477,0.0478,0.0475,0.0501,0.0502,0.0537,0.0486,0.0546,0.0549,0.0551,0.0618,0.0626,0.0634,0,0,0,0,0,0.0411,0.0415,0.0422,0.0424,0.0437,0.0447,0.0449,0.0459,0.0465,0.0475,0.049,0.0479,0.052,0.0503,0.0503,0.054,0.0544,0.0548,0.0551,0.0614,0.0625,0.0633,0,0,0,0,0,0,0.0411,0.0418,0.0425,0.0433,0.0445,0.045,0.0459,0.0467,0.0486,0.0493,0.0493,0.0496,0.0532,0.0525,0.0505,0.0568,0.0532,0.0536,0.058,0.059,0.0597,0.0643,0.0486,0,0,0,0,0,0.0414,0.0418,0.0429,0.0437,0.0445,0.0456,0.0463,0.0472,0.0486,0.0495,0.0505,0.0521,0.0544,0.0558,0.0566,0.0598,0.0601,0.0623,0.0631,0.0638,0.0676,0.0723,0.0739,0.0564,0.0564,0.0564,0,0,0.0413,0.042,0.0421,0.0438,0.0448,0.0462,0.0462,0.0479,0.0497,0.0494,0.0525,0.0544,0.0556,0.0596,0.0612,0.0597,0.0678,0.0642,0.0648,0.0683,0.0728,0.0746,0.0761,0.0566,0.0566,0.0565,0,0,0.0411,0.0426,0.0429,0.0443,0.0463,0.0473,0.0482,0.05,0.0517,0.0552,0.0559,0.0607,0.0627,0.0656,0.0671,0.0728,0.0715,0.0727,0.0812,0.0857,0.0872,0.0886,0.0865,0.0877,0.0737,0.0737,0.0737,0,0.0414,0.042,0.0432,0.0446,0.046,0.0481,0.0496,0.0515,0.0541,0.0577,0.0572,0.0658,0.0662,0.0735,0.0771,0.0748,0.0757,0.0772,0.0869,0.0883,0.0896,0.0872,0.0884,0.0741,0.0741,0.074,0.074,0,0.0412,0.0426,0.0433,0.0456,0.0477,0.0493,0.0522,0.0558,0.059,0.0625,0.0707,0.0731,0.0802,0.0802,0.0816,0.0915,0.0882,0.0867,0.0846,0.0918,0.0887,0.0898,0.0746,0.0745,0.0744,0.0743,0,0,0.039,0.0424,0.0426,0.0451,0.0486,0.0507,0.0552,0.0611,0.0667,0.0718,0.0802,0.087,0.0924,0.0948,0.0963,0.1013,0.1094,0.1005,0.1006,0.0988,0.1165,0.1078,0.1081,0.111,0.1113,0.1116,0.1089,0,0.0386,0.0408,0.0429,0.0469,0.0487,0.0538,0.0586,0.0652,0.0709,0.0796,0.0868,0.0955,0.0962,0.1026,0.1082,0.1095,0.1137,0.1101,0.1097,0.1096,0.1016,0.1097,0.1127,0.1097,0.11,0.1102,0.1103,0,0.0369,0.0393,0.0421,0.0496,0.0513,0.0552,0.0656,0.0704,0.0827,0.0889,0.1005,0.1063,0.1177,0.1165,0.1244,0.1228,0.1232,0.1222,0.122,0.1138,0.1035,0.1023,0.1123,0.1121,0.112,0.1118,0.1117,0,0.0338,0.039,0.0417,0.0437,0.0521,0.0575,0.0639,0.0748,0.0814,0.0975,0.1045,0.1173,0.125,0.1295,0.1312,0.1303,0.1359,0.1319,0.1229,0.1218,0.1269,0.1255,0.1393,0.1393,0.1393,0.1393,0.1393,0,0.0315,0.034,0.0418,0.0437,0.0509,0.0583,0.0683,0.0767,0.0901,0.0981,0.1113,0.1175,0.1304,0.1346,0.1343,0.1319,0.1384,0.1275,0.1235,0.1288,0.1278,0.1273,0.126,0.1392,0.1392,0.1392,0.1392,0,0.0266,0.0305,0.0353,0.0454,0.0492,0.0555,0.0701,0.0774,0.0906,0.101,0.108,0.122,0.1276,0.1331,0.1385,0.1343,0.1327,0.1299,0.133,0.1286,0.1138,0.1129,0.1197,0.1194,0.1192,0.119,0.1189,0,0.0238,0.0255,0.0354,0.039,0.0441,0.0547,0.0615,0.0769,0.0833,0.0994,0.1023,0.1155,0.1225,0.1213,0.128,0.1273,0.1262,0.1242,0.124,0.1179,0.1133,0.1126,0.112,0.1185,0.1184,0.1184,0.1183,0,0.0195,0.0233,0.0278,0.0348,0.0421,0.0497,0.06,0.0646,0.0803,0.0918,0.0982,0.1049,0.1098,0.1153,0.1184,0.1164,0.1256,0.1219,0.1223,0.122,0.1165,0.112,0.1116,0.1176,0.1177,0.1177,0.1178,0,0.0165,0.0185,0.0244,0.0311,0.0382,0.0427,0.0496,0.058,0.0673,0.0845,0.0846,0.0956,0.1069,0.1091,0.1089,0.1108,0.109,0.1058,0.1071,0.108,0.1062,0.0975,0.0924,0,0,0,0,0,0.0138,0.0156,0.0203,0.027,0.0334,0.0378,0.0473,0.0541,0.067,0.0694,0.0785,0.0827,0.0897,0.0945,0.0942,0.1018,0.1077,0.1007,0.1042,0.1133,0.1142,0.1136,0,0,0,0,0,0,0.0118,0.0151,0.0182,0.0222,0.0257,0.0323,0.0378,0.046,0.0486,0.0617,0.0657,0.0768,0.0839,0.089,0.0922,0.0938,0.0942,0.1081,0.1079,0.1128,0.1136,0.1143,0.114,0,0,0,0,0]},{"header":{"parameterUnit":"m.s-1","parameterCategory":2,"la1":30.2991,"la2":30.254,"lo1":-89.0895,"lo2":-89.0444,"dy":0.0017,"dx":0.0017,"nx":28,"ny":28,"refTime":"2024-03-20T03:00:00:Z","depth":"4","parameterNumber":3,"parameterNumberName":"V-component_of_CURRENTS"},"data":[0,0,0,0,0,0,0,0,0,0,0,0,0,0,0,0,0,0,0,0,0,0,0,0,0,0,0,0,0,0,0,0,0,0,0,0,0,0,0,0,0,0,0,0,0,0,0,0,0,0,0,0,0,0,0,0,0,0,0.0311,0.0311,0,0.0324,0.0324,0.0324,0.0319,0.0319,0.0319,0.0318,0.0335,0.0335,0.0336,0,0,0,0,0,0,0,0,0,0,0,0,0,0.0285,0.0285,0.0311,0.0311,0.0312,0.0324,0.0324,0.0324,0.0319,0.0319,0.0319,0.0318,0.0334,0.0335,0.0336,0,0,0,0,0,0,0,0,0,0,0,0,0,0.0297,0.0286,0.0311,0.0311,0.0311,0.0324,0.0324,0.0324,0.0319,0.0319,0.0319,0.0318,0.0334,0.0335,0.0336,0.0351,0,0,0.0339,0.034,0,0,0,0,0,0,0,0,0.0296,0.0298,0.0311,0.0311,0.0311,0.032,0.0321,0.0333,0.0319,0.0316,0.0318,0.0318,0.033,0.0332,0.0335,0.0351,0.0352,0.0339,0.034,0.034,0.0341,0,0,0,0,0,0,0,0.0295,0.0297,0.0316,0.0311,0.0311,0.0311,0.0312,0.0323,0.0325,0.0316,0.0316,0.0318,0.033,0.0334,0.0335,0.0352,0.0339,0.034,0.0341,0.0341,0.0395,0.0396,0,0,0,0,0,0,0.0295,0.0296,0.0316,0.0316,0.0303,0.0312,0.0313,0.0317,0.0325,0.0326,0.0318,0.0318,0.0332,0.0334,0.0336,0.0377,0.034,0.0341,0.0342,0.0394,0.0395,0.0396,0,0,0,0,0,0,0.0294,0.0296,0.0315,0.0307,0.0309,0.0312,0.0317,0.0318,0.0326,0.0327,0.0327,0.0326,0.0332,0.0334,0.0359,0.0377,0.0342,0.0343,0.0393,0.0394,0.0396,0.0445,0,0,0,0,0,0,0.0293,0.0296,0.0303,0.0307,0.0309,0.0335,0.0318,0.0318,0.0327,0.0327,0.0334,0.0335,0.0332,0.0358,0.036,0.0378,0.0344,0.0392,0.0394,0.0395,0.0442,0.0448,0.0453,0,0,0,0,0,0.0292,0.0309,0.0303,0.0306,0.0318,0.0336,0.0338,0.0338,0.0328,0.0342,0.0346,0.0335,0.0368,0.036,0.0362,0.038,0.0391,0.0393,0.0395,0.044,0.0447,0.0452,0,0,0,0,0,0,0.03,0.031,0.0304,0.0322,0.0332,0.0336,0.035,0.0344,0.0358,0.0358,0.0352,0.0354,0.0381,0.0374,0.0365,0.0399,0.0375,0.0378,0.0409,0.0415,0.042,0.0402,0.0344,0,0,0,0,0,0.0305,0.0322,0.0326,0.0341,0.0348,0.0348,0.0355,0.0355,0.0365,0.0369,0.0374,0.0378,0.039,0.0398,0.0407,0.0431,0.0378,0.0441,0.0446,0.045,0.0437,0.0362,0.0358,0.0402,0.0402,0.0402,0,0,0.0312,0.032,0.0328,0.0344,0.0351,0.0374,0.0352,0.0371,0.0387,0.037,0.0399,0.04,0.04,0.0427,0.0438,0.0425,0.0415,0.0453,0.0457,0.044,0.0364,0.0359,0.0355,0.0403,0.0403,0.0403,0,0,0.0343,0.0342,0.0369,0.0381,0.0397,0.0398,0.0405,0.0415,0.0417,0.0448,0.0434,0.0437,0.0471,0.0459,0.0461,0.0496,0.0445,0.0511,0.0522,0.0451,0.0446,0.044,0.0382,0.0371,0.0512,0.0512,0.0512,0,0.0349,0.0379,0.038,0.041,0.0417,0.0411,0.0435,0.0446,0.0463,0.0457,0.0468,0.0474,0.048,0.0478,0.0499,0.0505,0.046,0.0502,0.0454,0.0448,0.0442,0.0383,0.037,0.0514,0.0514,0.0514,0.0514,0,0.0401,0.0424,0.0442,0.0473,0.0482,0.0504,0.0509,0.0521,0.0523,0.0521,0.0525,0.0524,0.0519,0.0529,0.0535,0.0501,0.0483,0.0469,0.0434,0.044,0.0379,0.0364,0.0518,0.0517,0.0516,0.0516,0,0,0.041,0.0466,0.0472,0.0485,0.0511,0.0519,0.0546,0.0551,0.0548,0.0566,0.0551,0.0575,0.0554,0.0552,0.0542,0.0491,0.0427,0.0472,0.0467,0.0406,0.0273,0.0263,0.0246,0.0402,0.04,0.0398,0.0252,0,0.0444,0.0502,0.052,0.0561,0.0579,0.0577,0.0597,0.0598,0.0593,0.0584,0.0561,0.0561,0.0569,0.0566,0.0516,0.0446,0.039,0.0468,0.0283,0.0277,0.026,0.0229,0.0391,0.0241,0.0238,0.0235,0.0233,0,0.0485,0.0511,0.0558,0.0582,0.0589,0.0618,0.0608,0.0627,0.061,0.0607,0.0585,0.0564,0.0515,0.0515,0.0378,0.0428,0.0357,0.0296,0.0288,0.0245,0.0239,0.0231,0.0207,0.0209,0.0211,0.0213,0.0214,0,0.0475,0.0532,0.0564,0.0577,0.061,0.0624,0.0641,0.0633,0.0637,0.0614,0.06,0.054,0.0505,0.0404,0.0308,0.0334,0.0134,0.0147,0.0063,0.0062,0.0093,0.01,0.0026,0.0027,0.0027,0.0027,0.0028,0,0.0493,0.0517,0.0568,0.0584,0.0605,0.063,0.0646,0.0649,0.0651,0.0636,0.0612,0.0566,0.0473,0.0361,0.0276,0.0122,0.0102,0.0045,0.0013,0.0123,0.0134,0.0084,0.0092,0.0022,0.0023,0.0024,0.0025,0,0.0478,0.0521,0.055,0.0592,0.0607,0.062,0.0668,0.0676,0.0679,0.0651,0.0647,0.0571,0.0427,0.0315,0.0134,0.0076,-0.0066,-0.0115,0.0006,-0.0013,-0.008,-0.0067,-0.0231,-0.0233,-0.0234,-0.0236,-0.0237,0,0.0476,0.0496,0.0543,0.0559,0.0586,0.0622,0.0648,0.0687,0.0691,0.0638,0.0611,0.049,0.042,0.0156,0.0049,-0.0138,-0.0147,-0.0213,-0.0139,-0.0098,-0.0112,-0.0097,-0.0082,-0.0239,-0.024,-0.024,-0.024,0,0.0448,0.0473,0.0494,0.0533,0.0571,0.0608,0.0647,0.065,0.0668,0.0666,0.0564,0.045,0.028,0.0127,-0.0015,-0.0142,-0.0165,-0.0229,-0.0226,-0.0157,-0.011,-0.0119,-0.0103,-0.0246,-0.0245,-0.0244,-0.0244,0,0.0417,0.0424,0.0462,0.0495,0.0546,0.0581,0.0605,0.0608,0.0621,0.0576,0.0528,0.0379,0.0305,0.0119,-0.0021,-0.0138,-0.0152,-0.0164,-0.0164,-0.0159,-0.0078,-0.0004,-0.0157,0,0,0,0,0,0.0379,0.0393,0.0421,0.0462,0.052,0.0557,0.0597,0.0619,0.0624,0.0554,0.0552,0.0399,0.0199,0.0111,-0.0012,-0.0049,-0.0174,-0.0196,-0.0188,-0.0275,-0.0269,-0.0184,0,0,0,0,0,0,0.0353,0.0376,0.0403,0.0443,0.0474,0.0537,0.0568,0.0571,0.0537,0.052,0.0413,0.0378,0.0182,0.0266,-0.0014,-0.0049,-0.0058,-0.0282,-0.0284,-0.0279,-0.0273,-0.0268,-0.0179,0,0,0,0,0]}]]